Location: Newark
(40.9833°N, 0.0333°W)
Time: 16:35:54
(UTC+00:00)

Vanguard 1 Rocket - Visible Passes

Search period start: 21 October 2020 00:00
Search period end: 31 October 2020 00:00
Orbit: 656 x 4221 km, 34.3° (Epoch: 20 October)

Date Brightness Start Highest point End Pass type
(mag) Time Alt. Az. Time Alt. Az. Time Alt. Az.
21 Oct 10.5 18:00:19 10° WSW 18:07:51 27° SSW 18:20:07 10° SSE visible
22 Oct 11.2 19:17:21 10° WSW 19:23:15 15° SSW 19:30:55 10° S visible
23 Oct 10.8 18:04:28 10° WSW 18:10:58 20° SSW 18:20:32 10° SSE visible
25 Oct 11.1 18:09:36 10° SW 18:14:06 14° SSW 18:19:50 10° S visible
